Time,TemperatureF,DewpointF,PressureIn,WindDirection,WindDirectionDegrees,WindSpeedMPH,WindSpeedGustMPH,Humidity,HourlyPrecipIn,Conditions,Clouds,dailyrainin,SoftwareType,DateUTC
2013-07-06 00:12:00,64.0,-99.9,-100.00,North,-999,-999.0,-999.0,-999,0.00,,,0.02,,2013-07-06 06:12:00,
2013-07-06 00:22:00,64.0,-99.9,-100.00,North,-999,-999.0,-999.0,-999,0.00,,,0.02,,2013-07-06 06:22:00,
2013-07-06 00:34:00,64.0,-99.9,-100.00,North,-999,-999.0,-999.0,-999,0.00,,,0.02,,2013-07-06 06:34:00,
2013-07-06 00:43:00,64.0,-99.9,-100.00,North,-999,-999.0,-999.0,-999,0.00,,,0.02,,2013-07-06 06:43:00,
2013-07-06 02:12:00,65.0,-99.9,-100.00,North,-999,-999.0,-999.0,-999,-99.99,,,0.01,,2013-07-06 08:12:00,
2013-07-06 02:22:00,65.0,-99.9,-100.00,North,-999,-999.0,-999.0,-999,-99.99,,,0.01,,2013-07-06 08:22:00,
2013-07-06 02:34:00,65.0,-99.9,-100.00,North,-999,-999.0,-999.0,-999,-99.99,,,0.01,,2013-07-06 08:34:00,
2013-07-06 02:43:00,65.0,-99.9,-100.00,North,-999,-999.0,-999.0,-999,-99.99,,,0.01,,2013-07-06 08:43:00,
2013-07-06 03:11:00,68.0,-99.9,-100.00,North,-999,-999.0,-999.0,-999,0.00,,,0.02,,2013-07-06 09:11:00,
2013-07-06 03:22:00,68.0,-99.9,-100.00,North,-999,-999.0,-999.0,-999,0.00,,,0.02,,2013-07-06 09:22:00,
2013-07-06 03:34:00,68.0,-99.9,-100.00,North,-999,-999.0,-999.0,-999,0.00,,,0.02,,2013-07-06 09:34:00,
2013-07-06 03:43:00,68.0,-99.9,-100.00,North,-999,-999.0,-999.0,-999,0.00,,,0.02,,2013-07-06 09:43:00,
2013-07-06 06:12:00,63.0,-99.9,-100.00,North,-999,-999.0,-999.0,-999,-99.99,,,0.02,,2013-07-06 12:12:00,
2013-07-06 06:22:00,63.0,-99.9,-100.00,North,-999,-999.0,-999.0,-999,-99.99,,,0.02,,2013-07-06 12:22:00,
2013-07-06 06:34:00,63.0,-99.9,-100.00,North,-999,-999.0,-999.0,-999,-99.99,,,0.02,,2013-07-06 12:34:00,
2013-07-06 06:43:00,63.0,-99.9,-100.00,North,-999,-999.0,-999.0,-999,-99.99,,,0.02,,2013-07-06 12:43:00,
2013-07-06 07:33:00,65.0,-99.9,-100.00,North,-999,-999.0,-999.0,-999,0.00,,,0.02,,2013-07-06 13:33:00,
2013-07-06 07:43:00,65.0,-99.9,-100.00,North,-999,-999.0,-999.0,-999,0.00,,,0.02,,2013-07-06 13:43:00,
2013-07-06 08:22:00,69.0,-99.9,-100.00,North,-999,-999.0,-999.0,-999,0.00,,,0.02,,2013-07-06 14:22:00,
2013-07-06 08:34:00,69.0,-99.9,-100.00,North,-999,-999.0,-999.0,-999,0.00,,,0.02,,2013-07-06 14:34:00,
2013-07-06 08:43:00,69.0,-99.9,-100.00,North,-999,-999.0,-999.0,-999,0.00,,,0.02,,2013-07-06 14:43:00,
2013-07-06 09:12:00,72.0,-99.9,-100.00,North,-999,-999.0,-999.0,-999,0.00,,,0.01,,2013-07-06 15:12:00,
2013-07-06 09:22:00,72.0,-99.9,-100.00,North,-999,-999.0,-999.0,-999,0.00,,,0.01,,2013-07-06 15:22:00,
2013-07-06 09:34:00,72.0,-99.9,-100.00,North,-999,-999.0,-999.0,-999,0.00,,,0.01,,2013-07-06 15:34:00,
2013-07-06 09:43:00,72.0,-99.9,-100.00,North,-999,-999.0,-999.0,-999,0.00,,,0.01,,2013-07-06 15:43:00,
2013-07-06 09:45:00,73.0,-99.9,-100.00,North,-999,-999.0,-999.0,-999,0.00,,,0.02,,2013-07-06 15:45:00,
2013-07-06 10:31:00,73.0,-99.9,-100.00,North,-999,-999.0,-999.0,-999,0.00,,,0.02,,2013-07-06 16:31:00,
2013-07-06 10:45:00,76.0,-99.9,-100.00,North,-999,-999.0,-999.0,-999,0.00,,,-99.99,,2013-07-06 16:45:00,
2013-07-06 11:38:00,76.0,-99.9,-100.00,North,-999,-999.0,-999.0,-999,0.00,,,-99.99,,2013-07-06 17:38:00,
2013-07-06 11:45:00,79.0,-99.9,-100.00,North,-999,-999.0,-999.0,-999,0.00,,,0.01,,2013-07-06 17:45:00,
2013-07-06 12:41:00,79.0,-99.9,-100.00,North,-999,-999.0,-999.0,-999,0.00,,,0.01,,2013-07-06 18:41:00,
2013-07-06 12:45:00,85.0,-99.9,-100.00,North,-999,-999.0,-999.0,-999,0.00,,,0.01,,2013-07-06 18:45:00,
2013-07-06 13:28:00,85.0,-99.9,-100.00,North,-999,-999.0,-999.0,-999,0.00,,,0.01,,2013-07-06 19:28:00,
2013-07-06 13:36:00,85.0,-99.9,-100.00,North,-999,-999.0,-999.0,-999,0.00,,,0.01,,2013-07-06 19:36:00,
2013-07-06 13:45:00,85.0,-99.9,-100.00,North,-999,-999.0,-999.0,-999,0.00,,,0.01,,2013-07-06 19:45:00,
2013-07-06 14:38:00,85.0,-99.9,-100.00,North,-999,-999.0,-999.0,-999,0.00,,,0.01,,2013-07-06 20:38:00,
2013-07-06 14:45:00,90.0,-99.9,-100.00,North,-999,-999.0,-999.0,-999,0.00,,,-99.99,,2013-07-06 20:45:00,
2013-07-06 15:26:00,90.0,-99.9,-100.00,North,-999,-999.0,-999.0,-999,0.00,,,-99.99,,2013-07-06 21:26:00,
2013-07-06 15:39:00,90.0,-99.9,-100.00,North,-999,-999.0,-999.0,-999,0.00,,,-99.99,,2013-07-06 21:39:00,
2013-07-06 15:45:00,88.0,-99.9,-100.00,North,-999,-999.0,-999.0,-999,0.00,,,0.01,,2013-07-06 21:45:00,
2013-07-06 16:38:00,88.0,-99.9,-100.00,North,-999,-999.0,-999.0,-999,0.00,,,0.01,,2013-07-06 22:38:00,
2013-07-06 16:45:00,81.0,-99.9,-100.00,North,-999,-999.0,-999.0,-999,0.00,,,0.01,,2013-07-06 22:45:00,
2013-07-06 17:29:00,81.0,-99.9,-100.00,North,-999,-999.0,-999.0,-999,0.00,,,0.01,,2013-07-06 23:29:00,
2013-07-06 17:45:00,75.0,-99.9,-100.00,North,-999,-999.0,-999.0,-999,0.03,,,0.05,,2013-07-06 23:45:00,
2013-07-06 18:36:00,75.0,-99.9,-100.00,North,-999,-999.0,-999.0,-999,0.03,,,0.05,,2013-07-07 00:36:00,
2013-07-06 18:45:00,77.0,-99.9,-100.00,North,-999,-999.0,-999.0,-999,0.00,,,0.03,,2013-07-07 00:45:00,
2013-07-06 19:29:00,77.0,-99.9,-100.00,North,-999,-999.0,-999.0,-999,0.00,,,0.03,,2013-07-07 01:29:00,
2013-07-06 19:38:00,77.0,-99.9,-100.00,North,-999,-999.0,-999.0,-999,0.00,,,0.03,,2013-07-07 01:38:00,
2013-07-06 20:36:00,79.0,-99.9,-100.00,North,-999,-999.0,-999.0,-999,0.00,,,0.03,,2013-07-07 02:36:00,
2013-07-06 20:45:00,76.0,-99.9,-100.00,North,-999,-999.0,-999.0,-999,0.00,,,0.03,,2013-07-07 02:45:00,
2013-07-06 21:36:00,76.0,-99.9,-100.00,North,-999,-999.0,-999.0,-999,0.00,,,0.03,,2013-07-07 03:36:00,
2013-07-06 22:11:00,69.0,-99.9,-100.00,North,-999,-999.0,-999.0,-999,0.00,,,0.03,,2013-07-07 04:11:00,
2013-07-06 22:21:00,69.0,-99.9,-100.00,North,-999,-999.0,-999.0,-999,0.00,,,0.03,,2013-07-07 04:21:00,
2013-07-06 22:31:00,69.0,-99.9,-100.00,North,-999,-999.0,-999.0,-999,0.00,,,0.03,,2013-07-07 04:31:00,
2013-07-06 22:42:00,69.0,-99.9,-100.00,North,-999,-999.0,-999.0,-999,0.00,,,0.03,,2013-07-07 04:42:00,
2013-07-06 23:11:00,70.0,-99.9,-100.00,North,-999,-999.0,-999.0,-999,0.00,,,0.03,,2013-07-07 05:11:00,
2013-07-06 23:21:00,70.0,-99.9,-100.00,North,-999,-999.0,-999.0,-999,0.00,,,0.03,,2013-07-07 05:21:00,
2013-07-06 23:32:00,70.0,-99.9,-100.00,North,-999,-999.0,-999.0,-999,0.00,,,0.03,,2013-07-07 05:32:00,
2013-07-06 23:41:00,70.0,-99.9,-100.00,North,-999,-999.0,-999.0,-999,0.00,,,0.03,,2013-07-07 05:41:00,